Voltar ao catálogo

STARLINK-2402

AtivoComunicaçõesVLEO
NORAD 47819·PAYLOAD·🇺🇸 United States

Lançado Mar 11, 2021 de Cape Canaveral Space Force Station

Loading…

Próximas Passagens (próximas 24 horas)

TLE

AtualizadoSource: CelesTrak SupGP

Época: Sep 15, 2026, 01:27 UTC

1 47819C 21018AJ  26258.06090278  .00006144  00000+0  19755-3 0  2588
2 47819  53.1575  81.7514 0001078  75.7386 269.9135 15.31701346    12

Acompanhe STARLINK-2402 em tempo real com AllMySat

Download on the App Store